This demonstration page uses our WeatherBlox Daily Observations layout. Learn more.

Left ArrowRight Arrow

36.17497, -115.13722

Hourly Observations for April 26, 2021

Temp ( °F °C ) Dew Point ( °F °C ) Humidity (%) Winds ( mph kmh ) Pressure ( in mb ) Visibility ( mi km ) Precip ( " mm )
12:53 am 00:53 Clear 65 18.3 31 -0.6 28 28 S 16 26 29.60 1002 10 16 N/A
1:53 am 01:53 Clear 64 17.8 31 -0.6 29 29 SSW 16 26 29.60 1002 10 16 N/A
2:53 am 02:53 Clear 64 17.8 30 -1.1 28 28 SW 21 33 29.58 1002 10 16 N/A
3:53 am 03:53 Clear 62 16.7 30 -1.1 30 30 SW 15 24 29.60 1002 10 16 N/A
4:53 am 04:53 Clear 61 16.1 34 1.1 36 36 SW 18 30 29.59 1002 10 16 N/A
5:53 am 05:53 Mostly Sunny 60 15.6 34 1.1 38 38 SW 22 35 29.59 1002 10 16 N/A
6:53 am 06:53 Cloudy 60 15.6 33 0.6 36 36 SSW 24 39 29.59 1002 10 16 N/A
7:53 am 07:53 Sunny 61 16.1 32 undefined 34 34 WSW 21 33 29.62 1003 10 16 N/A
8:53 am 08:53 Sunny 63 17.2 33 0.6 33 33 WSW 12 19 29.66 1004 10 16 N/A
9:53 am 09:53 Sunny 63 17.2 32 undefined 31 31 SSW 13 20 29.67 1005 10 16 N/A
10:53 am 10:53 Sunny 63 17.2 34 1.1 34 34 SSE 14 22 29.69 1005 10 16 N/A
11:53 am 11:53 Sunny 65 18.3 33 0.6 31 31 S 15 24 29.68 1005 10 16 N/A
12:53 pm 12:53 Sunny 67 19.4 32 undefined 27 27 S 12 19 29.67 1005 10 16 N/A
1:53 pm 13:53 Mostly Cloudy 68 20 32 undefined 26 26 SE 12 19 29.65 1004 10 16 N/A
2:53 pm 14:53 Mostly Cloudy 69 20.6 31 -0.6 24 24 S 10 17 29.63 1003 10 16 N/A
3:53 pm 15:53 Cloudy 69 20.6 30 -1.1 23 23 S 8 13 29.62 1003 10 16 N/A
4:53 pm 16:53 Mostly Cloudy 68 20 34 1.1 28 28 N 12 19 29.62 1003 10 16 0.00 0.00
5:53 pm 17:53 Partly Cloudy 69 20.6 34 1.1 27 27 NNE 16 26 29.62 1003 10 16 N/A
6:53 pm 18:53 Mostly Cloudy 66 18.9 33 0.6 29 29 E 20 31 29.63 1003 10 16 N/A
7:53 pm 19:53 Cloudy 63 17.2 33 0.6 33 33 E 17 28 29.64 1004 10 16 N/A
8:53 pm 20:53 Mostly Clear 62 16.7 34 1.1 35 35 ENE 16 26 29.65 1004 10 16 N/A
9:53 pm 21:53 Cloudy 61 16.1 36 2.2 39 39 E 15 24 29.67 1005 10 16 N/A
10:53 pm 22:53 Clear 60 15.6 37 2.8 42 42 NE 10 17 29.68 1005 10 16 N/A
11:53 pm 23:53 Cloudy 60 15.6 38 3.3 44 44 N 8 13 29.70 1006 10 16 N/A

Powered by AerisWeather